DW7076 Floda SE current weather conditions

sailwx.info

Wind from 230 at 0 knots gusting 6

Air temperature 12.2° C
Dewpoint 11.1° C

Last reported at 2016-Jun-28 04:46 UTC.
Time now 2016-Jun-28 06:04 UTC

Location: N 57°49' E 012°21'.
View on Google Maps.

See reports from other nearby stations

  
Tides and Currents Weather Stations Pressure Air Temp Water Temp Dewpoint Dewpoint Depression Visibility Wind Speed Wind Dir Waves Ship Positions
date/time (UTC)wind fromknots sea level pressurealtimeterstation pressurevisibilityair tempwater tempwave heightnotes
2016-Jun-28 04:46 230 0 gusting 6 12.2
2016-Jun-28 04:36 142 0 gusting 2 11.7
2016-Jun-28 04:26 180 1 gusting 5 11.7
2016-Jun-28 04:16 098 0 gusting 4 11.7
2016-Jun-28 04:06 148 11.7
2016-Jun-28 03:56 183 11.7
2016-Jun-28 03:46 130 11.7
2016-Jun-28 03:36 130 11.7
2016-Jun-28 03:26 130 0 gusting 2 11.7
2016-Jun-28 03:16 130 11.7
2016-Jun-28 03:06 118 0 gusting 2 11.7
2016-Jun-28 02:56 176 12.2
2016-Jun-28 02:46 176 0 gusting 2 12.2
2016-Jun-28 02:36 176 12.2
2016-Jun-28 02:26 176 12.8
2016-Jun-28 02:16 176 12.8
2016-Jun-28 02:06 176 0 gusting 2 12.8
2016-Jun-28 01:56 176 12.8
2016-Jun-28 01:46 238 0 gusting 2 13.3
2016-Jun-28 01:36 177 13.3
2016-Jun-28 01:26 246 13.3
2016-Jun-28 01:16 191 0 gusting 2 13.3
2016-Jun-28 01:06 321 1 gusting 4 13.3
2016-Jun-28 00:56 237 1 gusting 5 13.9
2016-Jun-28 00:46 182 0 gusting 2 13.9
2016-Jun-28 00:36 257 1 gusting 2 13.9
2016-Jun-28 00:26 338 13.9
2016-Jun-28 00:16 038 1 gusting 7 13.9
2016-Jun-28 00:06 186 13.9
2016-Jun-27 23:56 269 0 gusting 6 14.4
2016-Jun-27 23:46 153 14.4
2016-Jun-27 23:36 154 14.4
2016-Jun-27 23:26 150 14.4
2016-Jun-27 23:16 117 14.4
2016-Jun-27 23:06 117 14.4
2016-Jun-27 22:56 117 14.4
2016-Jun-27 22:46 117 0 gusting 1 14.4
2016-Jun-27 22:36 117 14.4
2016-Jun-27 22:26 117 15.0
2016-Jun-27 22:16 117 0 gusting 1 15.0
2016-Jun-27 22:06 117 15.0
2016-Jun-27 21:56 117 15.0
2016-Jun-27 21:46 117 15.0
2016-Jun-27 21:36 117 15.0
2016-Jun-27 21:26 132 0 gusting 2 15.0
2016-Jun-27 21:16 144 0 gusting 2 14.4
2016-Jun-27 21:06 141 0 gusting 2 14.4
2016-Jun-27 20:56 134 0 gusting 2 14.4
2016-Jun-27 20:46 140 0 gusting 4 14.4
2016-Jun-27 20:36 130 0 gusting 2 14.4
2016-Jun-27 20:26 130 14.4
2016-Jun-27 20:06 158 0 gusting 2 14.4
2016-Jun-27 19:36 214 1 gusting 6 14.4
2016-Jun-27 19:26 148 1 gusting 4 15.0
2016-Jun-27 19:16 178 1 gusting 5 15.0
2016-Jun-27 19:06 170 0 gusting 6 15.0
2016-Jun-27 18:56 161 0 gusting 4 15.0
2016-Jun-27 18:46 142 0 gusting 5 15.0
2016-Jun-27 18:36 142 1 gusting 5 15.0
2016-Jun-27 18:16 161 0 gusting 5 15.0
2016-Jun-27 18:06 170 1 gusting 6 15.6
2016-Jun-27 17:56 168 1 gusting 6 15.6
2016-Jun-27 17:46 191 1 gusting 5 15.6
2016-Jun-27 17:36 181 0 gusting 7 16.1
2016-Jun-27 17:26 160 1 gusting 8 16.1
2016-Jun-27 17:16 178 1 gusting 8 16.1
2016-Jun-27 17:06 145 4 gusting 10 16.7
2016-Jun-27 16:46 200 4 gusting 8 16.7
2016-Jun-27 16:36 140 4 gusting 11 16.7
2016-Jun-27 16:26 208 2 gusting 8 16.7
2016-Jun-27 16:16 173 2 gusting 11 17.2
2016-Jun-27 16:06 149 0 gusting 11 17.2
2016-Jun-27 15:46 164 2 gusting 10 17.2
2016-Jun-27 15:36 217 4 gusting 8 17.8
2016-Jun-27 15:26 161 1 gusting 10 17.8
2016-Jun-27 15:16 228 3 gusting 15 17.8
2016-Jun-27 14:56 125 2 gusting 11 17.2
2016-Jun-27 14:46 125 2 gusting 8 17.2
2016-Jun-27 14:36 129 1 gusting 8 17.2
2016-Jun-27 14:26 222 2 gusting 7 17.2
2016-Jun-27 14:16 186 2 gusting 8 17.8
2016-Jun-27 14:06 162 2 gusting 8 17.8
2016-Jun-27 13:56 199 5 gusting 11 17.8
2016-Jun-27 13:26 202 4 gusting 10 17.8
2016-Jun-27 13:16 195 2 gusting 10 17.2
2016-Jun-27 12:56 167 2 gusting 6 17.2
2016-Jun-27 12:46 114 17.2
2016-Jun-27 12:36 115 1 gusting 5 17.2
2016-Jun-27 12:26 163 2 gusting 10 16.7
2016-Jun-27 12:16 165 4 gusting 12 17.2
2016-Jun-27 12:06 203 1 gusting 6 16.7
2016-Jun-27 11:56 182 1 gusting 7 16.1
2016-Jun-27 11:46 187 1 gusting 7 16.1
2016-Jun-27 11:36 184 1 gusting 6 16.1
2016-Jun-27 11:26 185 2 gusting 10 16.1
2016-Jun-27 11:16 159 2 gusting 8 16.1
2016-Jun-27 11:06 170 2 gusting 11 16.7
2016-Jun-27 10:56 166 5 gusting 10 16.7
2016-Jun-27 10:46 150 4 gusting 13 17.2
2016-Jun-27 10:36 245 4 gusting 12 17.2
2016-Jun-27 10:26 159 3 gusting 6 17.2
2016-Jun-27 10:06 259 4 gusting 10 17.8
2016-Jun-27 09:56 254 0 gusting 13 17.2
2016-Jun-27 09:46 200 2 gusting 12 17.8
2016-Jun-27 09:36 154 2 gusting 7 16.7
2016-Jun-27 09:26 282 2 gusting 10 17.2
2016-Jun-27 09:16 208 3 gusting 7 17.8
2016-Jun-27 09:06 261 0 gusting 15 16.7
2016-Jun-27 08:56 220 3 gusting 13 16.7
2016-Jun-27 08:46 281 4 gusting 12 16.7
2016-Jun-27 08:36 155 1 gusting 7 16.7
2016-Jun-27 08:16 174 4 gusting 13 17.2
2016-Jun-27 08:06 140 4 gusting 10 17.2
2016-Jun-27 07:56 205 3 gusting 11 17.8
2016-Jun-27 07:46 230 2 gusting 10 17.2
2016-Jun-27 07:26 198 2 gusting 10 16.7
2016-Jun-27 07:06 187 4 gusting 11 16.7
2016-Jun-27 06:56 200 2 gusting 7 16.1
2016-Jun-27 06:46 153 1 gusting 10 15.6
2016-Jun-27 06:36 163 1 gusting 7 15.0
2016-Jun-27 06:26 147 1 gusting 10 15.0
2016-Jun-27 06:16 204 0 gusting 8 14.4
2016-Jun-27 06:06 246 1 gusting 6 14.4
2016-Jun-27 05:56 148 1 gusting 6 13.9
2016-Jun-27 05:46 137 1 gusting 6 13.9
2016-Jun-27 05:36 173 2 gusting 6 13.9
2016-Jun-27 05:26 182 0 gusting 5 13.9
2016-Jun-27 05:16 169 0 gusting 4 13.3
2016-Jun-27 05:06 189 2 gusting 7 13.3
2016-Jun-27 04:56 164 1 gusting 7 13.3
2016-Jun-27 04:46 142 2 gusting 6 13.3
2016-Jun-27 04:36 244 1 gusting 8 12.8
2016-Jun-27 04:26 171 0 gusting 5 12.8
2016-Jun-27 04:16 194 0 gusting 5 12.2
2016-Jun-27 04:06 090 12.2
2016-Jun-27 03:56 145 11.7
2016-Jun-27 03:46 145 0 gusting 2 11.7
2016-Jun-27 03:36 171 11.7
2016-Jun-27 03:26 178 11.7
2016-Jun-27 03:16 216 11.7
2016-Jun-27 03:06 216 11.1
2016-Jun-27 02:56 219 11.1
2016-Jun-27 02:46 221 11.1
2016-Jun-27 02:26 220 11.1
2016-Jun-27 02:16 220 11.1
2016-Jun-27 02:06 220 11.1
2016-Jun-27 01:56 220 11.7
2016-Jun-27 01:46 220 11.7
2016-Jun-27 01:36 220 11.7
2016-Jun-27 01:06 220 11.7
2016-Jun-27 00:56 220 12.2
2016-Jun-27 00:46 220 12.2
2016-Jun-27 00:36 220 12.2
2016-Jun-27 00:26 220 12.2
2016-Jun-27 00:06 228 12.2
2016-Jun-26 23:56 309 12.2
2016-Jun-26 23:46 309 12.2
2016-Jun-26 23:36 309 12.2
2016-Jun-26 23:26 309 12.2
2016-Jun-26 22:56 309 12.2
2016-Jun-26 22:46 309 12.2
2016-Jun-26 22:36 309 12.8
2016-Jun-26 22:26 309 12.8
2016-Jun-26 22:16 309 12.8
2016-Jun-26 22:06 309 12.8
2016-Jun-26 21:46 309 13.3
2016-Jun-26 21:36 309 13.3
2016-Jun-26 21:26 309 13.9
2016-Jun-26 21:16 309 13.9
2016-Jun-26 20:56 309 14.4
2016-Jun-26 20:36 309 15.0
2016-Jun-26 20:26 309 0 gusting 0 15.0
2016-Jun-26 20:06 309 15.6
2016-Jun-26 19:56 309 16.1
2016-Jun-26 19:46 309 16.1
2016-Jun-26 19:36 309 16.7
2016-Jun-26 19:26 309 17.2
2016-Jun-26 19:16 309 17.2
2016-Jun-26 18:56 308 0 gusting 2 17.8
2016-Jun-26 18:46 144 1 gusting 5 17.8
2016-Jun-26 18:36 308 1 gusting 6 17.8
2016-Jun-26 18:26 286 1 gusting 2 18.3
2016-Jun-26 18:06 154 18.3
2016-Jun-26 17:56 197 0 gusting 2 18.9
2016-Jun-26 17:46 327 1 gusting 5 19.4
2016-Jun-26 17:26 284 1 gusting 6 19.4
2016-Jun-26 17:16 295 2 gusting 7 20.0
2016-Jun-26 17:06 233 1 gusting 5 19.4
2016-Jun-26 16:56 274 2 gusting 6 18.9
2016-Jun-26 16:46 176 1 gusting 10 18.9
2016-Jun-26 16:36 323 2 gusting 7 18.9
2016-Jun-26 16:06 339 2 gusting 8 18.3
2016-Jun-26 15:56 323 1 gusting 5 17.8
2016-Jun-26 15:46 298 3 gusting 10 17.8
2016-Jun-26 15:36 081 0 gusting 6 17.8
2016-Jun-26 15:26 342 2 gusting 7 17.8
2016-Jun-26 15:16 270 2 gusting 6 17.8
2016-Jun-26 15:06 225 0 gusting 6 17.8
2016-Jun-26 14:46 221 1 gusting 11 17.8
2016-Jun-26 14:36 197 1 gusting 4 18.3
2016-Jun-26 14:06 159 2 gusting 13 17.8
2016-Jun-26 13:56 259 1 gusting 10 17.8
2016-Jun-26 13:46 274 4 gusting 10 17.2
2016-Jun-26 13:36 242 0 gusting 10 17.2
2016-Jun-26 13:16 159 1 gusting 12 16.7
2016-Jun-26 13:06 117 2 gusting 8 16.7
2016-Jun-26 12:46 264 2 gusting 4 16.7
2016-Jun-26 12:36 204 0 gusting 5 16.7
2016-Jun-26 12:26 212 0 gusting 5 16.7
2016-Jun-26 12:16 202 1 gusting 6 16.1
2016-Jun-26 11:56 163 1 gusting 10 16.1
2016-Jun-26 11:46 335 2 gusting 10 16.1
2016-Jun-26 11:26 192 1 gusting 7 16.7
2016-Jun-26 11:16 197 5 gusting 8 16.7
2016-Jun-26 11:06 161 0 gusting 8 16.7
2016-Jun-26 10:56 153 5 gusting 10 16.7
2016-Jun-26 10:46 143 1 gusting 7 16.7
2016-Jun-26 10:36 181 2 gusting 10 17.2
2016-Jun-26 10:26 175 2 gusting 8 17.2
2016-Jun-26 10:16 142 3 gusting 7 17.8
2016-Jun-26 10:06 151 1 gusting 6 17.8
2016-Jun-26 09:56 246 3 gusting 10 18.3
2016-Jun-26 09:46 166 1 gusting 6 18.3
2016-Jun-26 09:36 235 1 gusting 7 18.9
2016-Jun-26 09:26 186 4 gusting 14 19.4
2016-Jun-26 09:06 154 3 gusting 8 20.6
2016-Jun-26 08:56 177 3 gusting 8 20.6
2016-Jun-26 08:46 164 0 gusting 6 20.6
2016-Jun-26 08:36 150 1 gusting 6 20.6
2016-Jun-26 08:26 21.1
2016-Jun-26 08:16 21.1
2016-Jun-26 08:06 21.1
2016-Jun-26 07:56 21.7
2016-Jun-26 07:46 21.7
2016-Jun-26 07:36 18.9
2016-Jun-26 07:16 18.9
2016-Jun-26 07:06 18.9
2016-Jun-26 06:56 18.9
2016-Jun-26 06:46 18.9
2016-Jun-26 06:36 18.9
2016-Jun-26 06:26 18.9
2016-Jun-26 06:16 18.9
2016-Jun-26 06:06 18.9